{"data":{"norad_id":58204,"epoch":"2026-09-19T19:20:15.807264Z","epoch_age_seconds":78293,"freshness":"FRESH","line1":"1 58204U 23169A   26262.80573851 -.00000253  00000+0  00000+0 0  9994","line2":"2 58204   2.7809  79.2675 0004209 130.7409 171.2068  1.00273935 10480","mean_motion":1.00273935,"eccentricity":0.0004209,"inclination_deg":2.7809,"raan_deg":79.2675,"arg_perigee_deg":130.7409,"mean_anomaly_deg":171.2068,"bstar":0,"rev_number":1048,"period_min":1436.0661122953,"perigee_km":35768.245366912,"apogee_km":35803.739130914,"semimajor_km":42164.129248913,"source":"CELESTRAK","updated_at":"2026-09-20T09:00:35.334928Z"}}